Alderpoint, California
Current Conditions -  °F | °C
As of 1:55 PM on Wednesday 28 Jan 2015 (Local Time) from KFOT Reporting Station
Clear Clear  
Wind Chill: 59°   Ceiling: Unl
Heat Index: 59°   Visibility: 10mi
Dew Point: 50°   Wind: 10mph
Humidity: 72%   Direction: 330°NNW
Pressure: 30.25"   Gusts: NA
Location:  40.18°N, 123.61°W
Report Text: KFOT 282155Z AUTO 33009KT 10SM CLR 15/10 A3025 RMK AO1
Loading
Personal Weather Stations






























Interactive Weather Map New forecast layout! Learn more

10-Day Weather Forecast

Advertisements
Track Severe Weather on mobile